Weather reports worldwide

Advertisment
Baruth, Germany (10376): temperature & dewpoint: 14.08.2019 06:00:00 - 20.08.2019 06:00:00 (CEST)Baruth, Germany (10376): temperature 5cm & temperature -5cm: 14.08.2019 06:00:00 - 20.08.2019 06:00:00 (CEST)Baruth, Germany (10376): temperature -20cm & temperature -100cm: 14.08.2019 06:00:00 - 20.08.2019 06:00:00 (CEST)Baruth, Germany (10376): wind speed & gusts: 14.08.2019 06:00:00 - 20.08.2019 06:00:00 (CEST)Baruth, Germany (10376): wind direction: 14.08.2019 06:00:00 - 20.08.2019 06:00:00 (CEST)Baruth, Germany (10376): reduced air pressure: 14.08.2019 06:00:00 - 20.08.2019 06:00:00 (CEST)Baruth, Germany (10376): visibility: 14.08.2019 06:00:00 - 20.08.2019 06:00:00 (CEST)Baruth, Germany (10376): sunshine duration: 14.08.2019 06:00:00 - 20.08.2019 06:00:00 (CEST)Baruth, Germany (10376): precipitation: 14.08.2019 06:00:00 - 20.08.2019 06:00:00 (CEST)
Date & Time tt [°C] td [°C] tt 5cm [°C] tt -5cm [°C] tt -20cm [°C] tt -100cm [°C] ff [km/h] ff [kn] fx [km/h] fx [kn] dd ppp [hPa] vv [km] sd [min] rr [mm]
20.08.2019 06:00:00 7,7 7,4 6,4 14,7 19,3 18,7 3 2 5 3 N 1020,6 42 0 0,0
20.08.2019 05:00:00 7,9 7,4 6,1 15,2 19,7 18,6 0 0 2 1 N 1020,3 1,4 0 0,0
20.08.2019 04:00:00 8,4 7,6 6,7 15,9 20,2 18,6 0 0 2 1 N 1020,4 39 0 0,0
20.08.2019 03:00:00 8,6 7,2 6,9 16,5 20,7 18,6 1 0 6 3 ESE 1020,4 41 0 0,0
20.08.2019 02:00:00 10,3 8,5 8,9 17,3 21,1 18,6 4 2 5 3 ESE 1020,1 57 0 0,0
20.08.2019 01:00:00 10,7 8,5 9,1 17,9 21,7 18,6 0 0 5 3 N 1020,0 51 0 0,0
20.08.2019 00:00:00 11,0 8,7 9,2 18,6 22,3 18,6 2 1 4 2 E 1019,5 54 0 0,0
19.08.2019 23:00:00 12,5 9,6 9,7 19,7 22,9 18,6 2 1 3 2 E 1019,2 62 0 0,0
19.08.2019 22:00:00 13,9 9,5 11,3 21,1 23,5 18,6 2 1 3 1 WSW 1018,8 59 0 0,0
19.08.2019 21:00:00 16,6 9,1 13,0 22,9 24,0 18,6 0 0 8 4 N 1018,2 59 3 0,0
19.08.2019 20:00:00 21,7 8,0 18,7 25,1 24,3 18,6 5 3 18 10 NW 1017,4 66 59 0,0
19.08.2019 19:00:00 24,0 6,7 24,6 27,3 24,3 18,6 9 5 21 11 NW 1016,9 70 56 0,0
19.08.2019 18:00:00 25,2 7,1 26,7 29,0 24,0 18,6 13 7 34 18 W 1016,5 53 57 0,0
19.08.2019 17:00:00 25,4 7,0 28,5 29,7 23,4 18,6 14 8 34 18 WNW 1016,3 73 57 0,0
19.08.2019 16:00:00 25,2 7,4 28,9 29,5 22,7 18,6 14 7 41 22 NW 1016,0 58 52 0,0
19.08.2019 15:00:00 25,1 10,3 27,6 28,0 22,1 18,6 19 11 44 24 W 1015,9 71 39 0,0
19.08.2019 14:00:00 23,5 11,0 24,9 26,6 21,5 18,6 21 12 42 23 W 1015,6 52 35 0,0
19.08.2019 13:00:00 22,8 13,4 25,0 25,9 20,8 18,6 10 6 31 17 W 1015,6 58 23 0,0
19.08.2019 12:00:00 21,5 13,7 22,9 24,8 20,1 18,6 11 6 23 12 W 1015,5 56 46 0,0
19.08.2019 11:00:00 20,2 14,7 21,5 21,6 19,7 18,6 13 7 22 12 W 1015,4 61 16 0,0
19.08.2019 10:00:00 18,7 14,5 19,3 19,9 19,6 18,6 10 6 16 8 W 1015,1 33 0 0,0
19.08.2019 09:00:00 17,5 15,3 17,8 18,5 19,6 18,6 4 2 8 4 W 1014,6 34 0 0,0
19.08.2019 08:00:00 16,2 15,4 16,0 17,7 19,8 18,6 6 3 9 5 W 1014,3 20 0 0,0
19.08.2019 07:00:00 15,7 15,0 14,6 17,5 20,0 18,6 4 2 6 3 W 1013,7 32 0 0,0
19.08.2019 06:00:00 15,9 14,7 15,0 17,7 20,3 18,6 5 3 11 6 NNW 1013,1 40 0 0,0
19.08.2019 05:00:00 16,7 14,7 15,7 18,0 20,6 18,6 6 4 17 9 WNW 1012,9 53 0 0,0
19.08.2019 04:00:00 17,0 15,5 16,1 18,4 20,9 18,6 11 6 16 9 W 1012,3 49 0 0,0
19.08.2019 03:00:00 17,7 15,9 17,0 19,0 21,2 18,6 11 6 19 10 W 1011,7 56 0 0,0
19.08.2019 02:00:00 18,1 16,8 17,8 19,3 21,5 18,5 10 6 16 9 W 1011,2 64 0 0,0
19.08.2019 01:00:00 18,5 16,6 17,6 19,8 21,9 18,5 10 5 18 10 W 1010,4 64 0 0,0
19.08.2019 00:00:00 19,0 16,8 17,7 20,2 22,2 18,5 9 5 17 9 WSW 1009,7 69 0 0,0
18.08.2019 23:00:00 19,2 17,1 18,3 20,9 22,6 18,5 9 5 21 11 W 1008,8 72 0 0,0
18.08.2019 22:00:00 20,3 17,0 18,9 21,7 23,0 18,5 12 7 22 12 W 1008,4 75 0 0,0
18.08.2019 21:00:00 18,9 17,4 17,7 22,5 23,5 18,5 4 2 6 4 S 1007,6 72 0 0,0
18.08.2019 20:00:00 20,0 17,6 18,8 23,8 23,9 18,5 4 2 32 18 W 1006,9 63 10 0,4
18.08.2019 19:00:00 21,2 17,2 19,5 26,4 23,9 18,5 29 16 54 29 W 1006,9 4,3 8 0,0
18.08.2019 18:00:00 27,9 16,5 28,4 28,4 23,6 18,5 17 9 28 15 S 1005,1 63 31 0,0
18.08.2019 17:00:00 26,7 17,4 28,4 29,3 22,9 18,5 11 6 36 19 SSW 1005,9 66 45 0,0
18.08.2019 16:00:00 26,4 17,0 29,6 29,0 22,1 18,5 21 11 40 22 WSW 1006,5 75 56 0,0
18.08.2019 15:00:00 24,4 17,6 27,7 27,1 21,4 18,5 23 12 40 22 SW 1007,2 69 39 0,0
18.08.2019 14:00:00 22,4 17,7 23,9 25,8 20,8 18,5 16 8 33 18 SSW 1007,3 52 29 0,0
18.08.2019 13:00:00 21,2 18,2 23,1 24,2 20,3 18,5 14 8 29 15 SW 1007,2 66 22 0,0
18.08.2019 12:00:00 18,8 17,6 19,2 21,0 20,2 18,5 11 6 22 12 SSW 1007,6 8 0 0,0
18.08.2019 11:00:00 18,6 17,7 19,2 20,7 20,0 18,5 10 5 16 9 S 1007,3 6 0 0,1
18.08.2019 10:00:00 18,3 17,4 18,9 20,0 20,0 18,5 7 4 13 7 S 1007,7 6 0 0,3
18.08.2019 09:00:00 17,6 16,7 17,6 19,3 20,1 18,5 8 5 14 7 S 1008,1 3,1 0 0,5
18.08.2019 08:00:00 18,2 16,1 17,4 19,2 20,2 18,5 8 5 16 9 SW 1008,5 27 0 0,2
18.08.2019 07:00:00 17,7 15,0 17,2 19,2 20,3 18,5 8 4 10 6 SSE 1008,3 58 0 0,0
18.08.2019 06:00:00 18,3 14,4 17,5 19,3 20,5 18,5 5 3 11 6 SE 1008,4 50 0 0,0
18.08.2019 05:00:00 18,7 14,3 17,9 19,5 20,7 18,5 8 4 14 7 S 1008,6 64 0 0,0
18.08.2019 04:00:00 18,9 14,4 17,3 19,9 20,9 18,5 9 5 19 11 WSW 1009,3 62 0 0,0
18.08.2019 03:00:00 20,0 13,3 19,2 20,1 21,1 18,5 10 6 17 9 SSW 1009,2 55 0 0,0
18.08.2019 02:00:00 19,9 13,1 18,5 20,4 21,3 18,5 11 6 18 10 SSW 1009,3 57 0 0,0
18.08.2019 01:00:00 19,8 13,4 17,6 20,8 21,6 18,5 6 3 9 5 SSE 1009,6 67 0 0,0
18.08.2019 00:00:00 20,7 13,4 19,2 21,2 21,8 18,5 6 4 14 7 SW 1009,6 53 0 0,0
17.08.2019 23:00:00 20,8 13,1 18,8 21,7 22,0 18,5 8 5 15 8 S 1009,4 66 0 0,0
17.08.2019 22:00:00 21,9 13,2 21,2 22,2 22,3 18,5 10 6 25 13 WSW 1009,7 73 0 0,0
17.08.2019 21:00:00 22,2 12,2 20,9 22,9 22,5 18,6 14 8 30 16 SW 1009,3 61 0 0,0
17.08.2019 20:00:00 23,1 12,1 22,1 24,0 22,7 18,6 10 5 22 12 S 1009,3 57 0 0,0
17.08.2019 19:00:00 23,9 11,1 23,5 25,0 22,7 18,6 16 9 39 21 SSW 1009,4 56 0 0,0
17.08.2019 18:00:00 24,7 11,5 25,2 26,1 22,5 18,6 22 12 37 20 SSW 1009,5 60 0 0,0
17.08.2019 17:00:00 25,8 12,4 27,4 27,0 22,1 18,6 22 12 37 20 SW 1009,3 52 11 0,0
17.08.2019 16:00:00 26,3 12,1 28,2 27,0 21,5 18,6 24 13 38 21 SW 1009,2 69 0 0,0
17.08.2019 15:00:00 26,2 11,6 28,3 27,9 20,6 18,6 23 12 36 20 SSW 1009,4 75 46 0,0
17.08.2019 14:00:00 26,3 12,3 30,7 26,0 19,7 18,6 16 9 31 17 S 1010,1 52 58 0,0
17.08.2019 13:00:00 23,3 12,4 25,6 22,2 19,2 18,6 13 7 22 12 SSE 1011,3 56 1 0,0
17.08.2019 12:00:00 21,5 12,3 23,2 21,3 18,7 18,6 12 6 21 12 S 1012,2 54 0 0,0
17.08.2019 11:00:00 20,6 12,7 22,8 19,6 18,4 18,6 5 3 15 8 ESE 1012,3 55 0 0,0
17.08.2019 10:00:00 17,7 11,9 18,8 18,1 18,3 18,6 9 5 17 9 ESE 1012,5 49 0 0,0
17.08.2019 09:00:00 16,5 11,0 17,0 17,2 18,2 18,6 9 5 14 7 ESE 1012,9 42 0 0,0
17.08.2019 08:00:00 15,3 10,1 15,3 16,5 18,3 18,7 7 4 11 6 E 1012,8 49 0 0,0
17.08.2019 07:00:00 14,2 9,5 13,9 16,1 18,5 18,7 7 4 13 7 E 1013,0 55 0 0,0
17.08.2019 06:00:00 13,4 8,9 13,0 16,0 18,8 18,7 9 5 13 7 E 1013,0 49 0 0,0
17.08.2019 05:00:00 12,5 8,3 11,5 16,0 19,1 18,7 9 5 13 7 E 1013,4 47 0 0,0
17.08.2019 04:00:00 11,8 7,9 10,7 16,3 19,4 18,7 9 5 14 7 ESE 1013,8 45 0 0,0
17.08.2019 03:00:00 12,2 8,1 10,2 16,9 19,7 18,7 7 4 13 7 ESE 1014,3 39 0 0,0
17.08.2019 02:00:00 12,5 8,4 12,0 17,3 20,1 18,7 7 4 12 7 ESE 1014,7 34 0 0,0
17.08.2019 01:00:00 11,7 8,3 9,4 17,5 20,5 18,7 5 3 9 5 E 1015,1 48 0 0,0
17.08.2019 00:00:00 11,0 8,6 9,5 18,3 21,0 18,7 4 2 6 3 E 1015,4 38 0 0,0
16.08.2019 23:00:00 11,8 8,7 9,3 19,0 21,5 18,7 3 2 7 4 E 1015,7 44 0 0,0
16.08.2019 22:00:00 13,5 9,4 10,5 20,1 21,9 18,7 3 2 5 3 ESE 1015,6 46 0 0,0
16.08.2019 21:00:00 15,4 9,5 12,5 21,5 22,3 18,7 3 1 6 3 SSW 1015,3 44 0 0,0
16.08.2019 20:00:00 18,0 10,2 14,8 23,3 22,5 18,7 3 2 14 7 SW 1015,0 48 19 0,0
16.08.2019 19:00:00 21,5 7,8 20,9 25,0 22,4 18,7 10 5 21 11 W 1015,0 59 50 0,0
16.08.2019 18:00:00 22,4 9,0 24,0 25,6 22,2 18,8 9 5 26 14 W 1015,3 64 16 0,0
16.08.2019 17:00:00 22,6 9,0 23,7 26,4 21,8 18,8 13 7 29 15 W 1015,3 61 26 0,0
16.08.2019 16:00:00 23,9 8,8 27,5 25,9 21,4 18,8 17 9 33 18 W 1015,3 62 44 0,0
16.08.2019 15:00:00 22,0 11,4 25,4 24,2 21,0 18,8 16 9 29 16 W 1015,9 57 8 0,0
16.08.2019 14:00:00 20,5 10,7 21,4 25,6 20,4 18,8 12 7 28 15 W 1016,0 56 17 0,0
16.08.2019 13:00:00 21,9 11,0 25,8 24,9 19,7 18,8 12 7 29 15 W 1016,1 64 46 0,0
16.08.2019 12:00:00 20,6 12,5 23,8 22,6 19,1 18,9 21 11 35 19 W 1016,5 58 21 0,0
16.08.2019 11:00:00 19,1 13,0 21,1 21,3 18,7 18,9 23 13 34 18 W 1016,5 58 16 0,0
16.08.2019 10:00:00 18,1 12,7 19,4 19,3 18,4 18,9 22 12 33 18 W 1016,3 52 14 0,0
16.08.2019 09:00:00 17,5 13,3 18,7 18,1 18,2 18,9 18 10 31 17 W 1016,0 55 45 0,0
16.08.2019 08:00:00 16,0 13,6 16,5 16,9 18,3 18,9 14 8 24 13 W 1015,6 41 44 0,0
16.08.2019 07:00:00 14,7 13,4 14,1 16,3 18,4 18,9 13 7 18 10 W 1015,3 35 0 0,0
16.08.2019 06:00:00 14,4 13,3 13,5 16,3 18,7 18,9 12 6 19 10 W 1014,7 34 0 0,0
16.08.2019 05:00:00 14,4 13,4 12,8 16,6 18,9 18,9 9 5 20 11 W 1014,3 25 0 0,0
16.08.2019 04:00:00 15,3 14,2 14,5 17,0 19,1 19,0 11 6 19 10 W 1014,1 36 0 0,0
16.08.2019 03:00:00 15,8 14,0 14,6 17,5 19,2 19,0 11 6 18 10 W 1013,7 53 0 0,0
16.08.2019 02:00:00 16,4 13,9 15,9 17,6 19,4 19,0 11 6 16 9 W 1013,4 59 0 0,0
16.08.2019 01:00:00 16,3 13,2 15,6 17,7 19,7 19,0 12 7 18 10 W 1013,1 60 0 0,0
16.08.2019 00:00:00 16,4 12,9 15,1 18,0 19,9 19,0 10 5 18 10 W 1012,6 75 0 0,0
15.08.2019 23:00:00 17,1 12,9 14,4 18,3 20,2 19,0 8 5 13 7 SW 1012,0 58 0 0,0
15.08.2019 22:00:00 17,0 13,2 13,1 19,2 20,5 19,1 5 3 9 5 SSW 1012,0 64 0 0,0
15.08.2019 21:00:00 18,1 13,0 14,5 20,1 20,6 19,1 4 2 23 12 SSW 1011,7 67 0 0,0
15.08.2019 20:00:00 20,6 12,8 19,9 20,9 20,7 19,1 13 7 26 14 SW 1011,0 66 0 0,0
15.08.2019 19:00:00 20,8 12,0 20,7 21,2 20,7 19,1 9 5 18 10 S 1010,7 61 0 0,0
15.08.2019 18:00:00 20,7 11,5 20,8 21,3 20,7 19,1 10 6 23 13 SSW 1010,8 59 0 0,0
15.08.2019 17:00:00 20,8 12,0 20,8 21,8 20,6 19,2 10 5 24 13 SW 1011,1 60 0 0,0
15.08.2019 16:00:00 21,3 12,5 21,5 22,3 20,4 19,2 11 6 19 10 SW 1011,3 53 1 0,0
15.08.2019 15:00:00 19,8 13,5 20,6 21,6 20,3 19,2 7 4 27 15 S 1011,6 52 0 0,1
15.08.2019 14:00:00 21,2 10,8 19,7 22,4 20,1 19,2 16 9 28 15 SW 1011,9 33 0 0,0
15.08.2019 13:00:00 21,8 10,2 22,9 22,6 19,6 19,2 16 9 29 16 SSW 1012,0 53 0 0,0
15.08.2019 12:00:00 21,5 10,2 23,3 21,9 19,2 19,2 10 5 28 15 S 1012,5 55 0 0,0
15.08.2019 11:00:00 21,0 9,4 22,9 21,7 18,6 19,2 15 8 27 15 SSW 1012,8 56 14 0,0
15.08.2019 10:00:00 20,7 9,8 23,0 20,1 18,0 19,3 13 7 23 12 S 1013,1 57 44 0,0
15.08.2019 09:00:00 17,0 8,5 19,5 16,9 17,9 19,3 6 3 14 8 E 1013,9 48 52 0,0
15.08.2019 08:00:00 11,9 7,0 12,3 15,1 18,0 19,3 10 5 18 10 ESE 1014,4 57 6 0,0
15.08.2019 07:00:00 10,0 5,9 10,2 14,5 18,2 19,3 12 6 17 9 ESE 1014,6 56 9 0,0
15.08.2019 06:00:00 8,4 5,3 7,7 14,5 18,6 19,3 8 4 13 7 ESE 1015,0 46 0 0,0
15.08.2019 05:00:00 8,5 5,2 7,5 14,8 19,0 19,3 7 4 11 6 E 1015,3 52 0 0,0
15.08.2019 04:00:00 7,1 5,2 4,8 14,9 19,4 19,3 6 3 9 5 E 1016,0 59 0 0,0
15.08.2019 03:00:00 7,5 5,2 4,3 15,5 19,9 19,3 5 3 9 5 E 1016,4 50 0 0,0
15.08.2019 02:00:00 7,9 5,4 5,1 16,1 20,4 19,3 6 3 12 6 E 1016,8 48 0 0,0
15.08.2019 01:00:00 7,8 5,7 5,1 16,8 20,9 19,3 6 4 9 5 E 1016,9 52 0 0,0
15.08.2019 00:00:00 8,8 6,5 5,8 17,8 21,5 19,3 5 3 7 4 E 1016,9 51 0 0,0
14.08.2019 23:00:00 9,5 6,9 6,8 18,8 22,0 19,3 4 2 5 3 ESE 1017,0 47 0 0,0
14.08.2019 22:00:00 11,2 8,1 8,1 20,1 22,5 19,4 3 2 5 3 ESE 1016,8 49 0 0,0
14.08.2019 21:00:00 14,3 8,1 10,3 21,7 22,9 19,4 3 2 6 3 SE 1016,7 49 15 0,0
14.08.2019 20:00:00 18,8 6,0 14,7 23,6 23,2 19,4 4 2 13 7 NW 1016,5 55 58 0,0
14.08.2019 19:00:00 20,8 6,5 20,8 24,9 23,2 19,4 9 5 21 11 W 1016,4 70 24 0,0
14.08.2019 18:00:00 21,7 6,3 24,0 25,7 23,0 19,4 9 5 22 12 W 1016,4 73 28 0,0
14.08.2019 17:00:00 21,1 5,4 22,7 26,3 22,8 19,4 13 7 28 15 WNW 1016,6 62 9 0,0
14.08.2019 16:00:00 21,0 5,6 22,4 27,2 22,3 19,5 17 9 33 18 W 1016,8 57 32 0,0
14.08.2019 15:00:00 21,6 5,0 24,3 26,2 21,7 19,5 18 10 34 18 W 1016,8 75 43 0,0
14.08.2019 14:00:00 20,2 6,5 22,1 25,3 21,2 19,5 21 11 32 18 W 1017,1 47 28 0,0
14.08.2019 13:00:00 19,5 8,0 21,1 25,0 20,6 19,5 21 12 29 16 W 1017,4 60 38 0,0
14.08.2019 12:00:00 19,0 9,3 21,4 23,7 20,0 19,5 15 8 24 13 W 1017,8 51 30 0,0
14.08.2019 11:00:00 18,0 8,9 21,4 22,6 19,4 19,5 11 6 25 14 W 1018,0 58 57 0,0
14.08.2019 10:00:00 16,9 9,1 20,0 19,4 19,1 19,5 13 7 21 11 W 1018,3 61 49 0,0
14.08.2019 09:00:00 14,7 9,1 15,2 17,5 19,1 19,5 13 7 20 11 W 1018,5 50 0 0,0
14.08.2019 08:00:00 13,5 9,3 13,8 16,6 19,2 19,5 10 5 13 7 W 1018,5 63 4 0,0
14.08.2019 07:00:00 11,8 7,9 10,7 16,2 19,4 19,5 6 3 10 6 W 1017,8 60 0 0,0
14.08.2019 06:00:00 11,6 7,7 10,8 16,2 19,7 19,5 7 4 11 6 W 1017,5 55 0 0,1

tt = temperature
td = dewpoint
tt 5cm = temperature 5cm
tt -5cm = temperature -5cm
tt -20cm = temperature -20cm
tt -100cm = temperature -100cm
ff = wind speed
fx = gusts
dd = wind direction
ppp = reduced air pressure
vv = visibility
sd = sunshine duration
rr = precipitation

Next stations